Regional Weather Roundup
Issued by NWS

Home | Current Version | Previous Version | Graphics & Text | Print | Product List | Glossary On
Versions: 1 2 3 4 5 6 7 8 9 10 11 12 13 14 15 16 17 18 19 20 21 22 23 24 25 26 27 28 29 30 31 32 33 34 35 36 37 38 39 40 41 42 43 44 45 46 47 48 49 50
812
ASUS43 KMKX 180511
RWRWI

WISCONSIN REGIONAL WEATHER ROUNDUP
NATIONAL WEATHER SERVICE MILWAUKEE/SULLIVAN WI
1100 PM CST TUE JAN 17 2017

NOTE: "FAIR" INDICATES FEW OR NO CLOUDS BELOW 12,000 FEET WITH NO
SIGNIFICANT WEATHER AND/OR OBSTRUCTIONS TO VISIBILITY.

WIZ001-002-006>008-014>016-023>028-180600-
NORTHWEST WISCONSIN

CITY           SKY/WX    TMP DP  RH WIND       PRES   REMARKS
SUPERIOR ARPT  CLOUDY    27  24  88 SW9       29.89F WCI  17
ASHLAND        CLOUDY    23  20  88 SW9       29.90  WCI  13
HAYWARD        FOG       26  24  92 S7        29.93S VSB 3/4 WCI  18
SIREN          CLOUDY    30  28  94 SW9       29.95S WCI  21
CUMBERLAND     FOG       30  30 100 SW14      29.94F VSB 1/4 WCI  20
RICE LAKE      FOG       31  30  98 SW7       29.98S VSB 1/4 WCI  24
CHETEK         NOT AVBL
LADYSMITH      CLOUDY    28  27  97 SW5       29.96R FOG     WCI  22
EAU CLAIRE     FOG       31  31 100 SW8       29.98S VSB 1/4 WCI  23
MENOMONIE      FOG       32  32 100 CALM      30.00R VSB 1
NEW RICHMOND   CLOUDY    31  31 100 SW8       29.97F FOG     WCI  24
OSCEOLA        CLOUDY    31  31 100 S5        30.00F WCI  26
$$

WIZ003>005-009-010-017-018-180600-
NORTH CENTRAL WISCONSIN

CITY           SKY/WX    TMP DP  RH WIND       PRES   REMARKS
MANITOWISH WTR FOG       15  15 100 CALM      29.89S VSB 3/4
ARBOR VITAE    FOG       22  20  93 CALM      29.90R VSB 1/4
WOODRUFF       FOG       22  20  93 CALM      29.90R VSB 1/4
RHINELANDER    CLOUDY    25  24  96 CALM      29.90S
EAGLE RIVER    CLOUDY    19  19  98 CALM      29.89R
LAND O LAKES   CLOUDY    16  15  95 CALM      29.90R
PHILLIPS       CLOUDY   N/A N/A N/A CALM      29.91R FOG
TOMAHAWK       CLOUDY    23  22  94 CALM      29.92R
MEDFORD        CLOUDY    28  27  96 SW5       29.93R FOG     WCI  23
MERRILL          N/A     30  30 100 CALM        N/A  FOG
$$

WIZ029-030-035-036-043>047-180600-
CENTRAL WISCONSIN

CITY           SKY/WX    TMP DP  RH WIND       PRES   REMARKS
WAUSAU         CLEAR     29  29 100 W5        29.92S FOG     WCI  24
MOSINEE        FOG       28  28 100 W6        29.95S VSB 1/4 WCI  22
MARSHFIELD     FOG       31  30  96 W9        29.95R VSB 1/4 WCI  23
STEVENS POINT  FOG       31  31 100 W6        29.96R VSB 1/2 WCI  25
WAUPACA        CLOUDY    36  34  94 CALM      29.96R
WAUTOMA        CLOUDY    34  33  96 W6        29.98R WCI  29
WISC RAPIDS    FOG       33  33 100 W6        29.98  VSB 3/4 WCI  28
CAMP DOUGLAS   CLOUDY    32  32 100 W9        29.99S FOG     WCI  24
$$

WIZ011>013-019>022-031-037>040-048>050-180600-
NORTHEAST WISCONSIN

CITY           SKY/WX    TMP DP  RH WIND       PRES   REMARKS
ANTIGO         FOG       25  25 100 CALM      29.92R VSB 1/4
SHAWANO        PTCLDY    34  33  95 CALM      29.94S FOG
OCONTO         CLOUDY    33  32  99 CALM      29.94R VSB 1/2
STURGEON BAY   FOG      N/A N/A N/A W3        29.94S VSB 1/4
GREEN BAY      CLOUDY    35  35 100 SW3       29.95R FOG
MANITOWOC      CLOUDY   N/A N/A N/A NW8       29.95R FOG
APPLETON       FOG       32  32 100 W7        29.94R VSB 1/4 WCI  26
CLINTONVILLE   CLOUDY    34  32  93 SW3       29.94S FOG
OSHKOSH        CLOUDY    34  33  96 W3        29.96R FOG
$$

WIZ032>034-041-042-053>061-180600-
SOUTHWEST WISCONSIN

CITY           SKY/WX    TMP DP  RH WIND       PRES   REMARKS
LA CROSSE      CLOUDY    36  33  89 SW5       30.04R FOG     WCI  32
SPARTA         CLOUDY    32  32 100 W5        30.03R FOG     WCI  27
VIROQUA        CLOUDY    32  32 100 W6        30.00S VSB 1/4 WCI  26
BOSCOBEL       CLOUDY    35  34  96 W3        30.04R FOG
PRAIRIE DU CHI CLOUDY    34  33  96 W8        30.05R WCI  27
PLATTEVILLE    CLOUDY    34  34 100 W8        30.03R VSB 1/2 WCI  27
$$

WIZ056-057-062-063-064-067-068-180600-
SOUTH CENTRAL WISCONSIN

CITY           SKY/WX    TMP DP  RH WIND       PRES   REMARKS
REEDSBURG      CLOUDY    33  33 100 W6        29.99R FOG     WCI  28
BARABOO/DELLS  CLOUDY    33  33  99 W5        29.99R FOG     WCI  29
LONE ROCK      CLOUDY    34  33  96 W9        30.03R FOG     WCI  27
MINERAL POINT  FOG       34  34 100 W9        30.01R VSB 1/2 WCI  26
MADISON        CLOUDY    33  33 100 VRB5      30.00R FOG     WCI  29
MIDDLETON      CLOUDY    35  35 100 W10       30.00R WCI  27
WATERTOWN      CLOUDY    33  33 100 W7        29.98R FOG     WCI  27
MONROE         CLOUDY    32  32 100 W12       30.00R WCI  23
JANESVILLE     CLOUDY    34  34 100 W7        30.00R WCI  28
$$

WIZ051-052-058>065-066-070>072-180600-
SOUTHEAST WISCONSIN

CITY           SKY/WX    TMP DP  RH WIND       PRES   REMARKS
MILWAUKEE      CLOUDY    36  33  89 W8        29.96R WCI  30
WAUKESHA       CLOUDY    32  32 100 W8        29.97R FOG     WCI  25
MILWAUKEE/TIMM CLOUDY    34  32  93 W7        29.97R FOG     WCI  28
RACINE         CLOUDY    35  33  92 W9        29.98R WCI  28
KENOSHA        CLOUDY    34  33  96 W9        29.97R FOG     WCI  27
FOND DU LAC    CLOUDY    34  32  92 SW3       29.96R
SHEBOYGAN      CLOUDY    34  32  92 W6        29.95R WCI  29
WEST BEND      CLOUDY    32  32 100 W9        29.96R FOG     WCI  24
JUNEAU         FOG       33  32  99 W3        29.98R VSB 3/4
$$

LSZ147-162-180600-
LAKE SUPERIOR

STATION/POSITION TIME  TEMP    WIND        PRES    WAVE
                       AIR SEA DIR/SP/G            HT/PER
                 (UTC) (F)     (DEG/KT/KT) (MB)    (FT/S)
DEVILS ISLAND    0500   33     220/ 14/ 16 1011.9F
PORT WING        0440   28     170/  4/  6 1012.5S
SAXON HARBOR     0440   22     200/  4/  7 1012.2F
$$

LMZ867-665-643>646-180600-
LAKE MICHIGAN

STATION/POSITION TIME  TEMP    WIND        PRES    WAVE
                       AIR SEA DIR/SP/G            HT/PER
                 (UTC) (F)     (DEG/KT/KT) (MB)    (FT/S)
NORTHPORT PIER   0500   33      CALM  /  1 1013.5
SISTER BAY       0450   32        CALM       N/A
KEWAUNEE LAKESHO 0442   33     310/  7/ 11 1013.3R
SHEBOYGAN LAKESH 0500   34     290/  7/  9 1014.7R
PORT WASHINGTON  0430   35     280/  4/  7 1014.9F
MILWAUKEE LAKESH 0450   35     290/  7/  8   N/A
KENOSHA   LAKESH 0500   35     280/  9/ 12 1015.2
$$

TC  - TEMPERATURE IN CELSIUS
VSB - VISIBILITY IN STATUTE MILES
WCI - WIND CHILL INDEX
HX  - HEAT INDEX





USA.gov is the U.S. government's official web portal to all federal, state and local government web resources and services.